Regional Weather Roundup
Issued by NWS

Home | Current Version | Previous Version | Graphics & Text | Print | Product List | Glossary On
Versions: 1 2 3 4 5 6 7 8 9 10 11 12 13 14 15 16 17 18 19 20 21 22 23 24 25 26 27 28 29 30 31 32 33 34 35 36 37 38 39 40 41 42 43 44 45 46 47 48 49 50
000
ASUS45 KBOI 221010
RWRID
WEATHER ROUNDUP FOR IDAHO
NATIONAL WEATHER SERVICE BOISE ID
300 AM MST SAT NOV 22 2014

NOTE: "FAIR" INDICATES FEW OR NO CLOUDS BELOW 12000 FEET
WITH NO SIGNIFICANT WEATHER AND/OR OBSTRUCTIONS TO VISIBILITY

IDZ012-014-221100-
SOUTHWEST IDAHO


CITY           SKY/WX    TMP DP  RH WIND       PRES   REMARKS
BOISE          LGT RAIN  42  32  67 SE18      29.74F
CALDWELL       NOT AVBL
MOUNTAIN HOME  LGT RAIN  37  37 100 E13       29.77F WCI  29
$$

IDZ016-017-221100-
SOUTHCENTRAL IDAHO


CITY           SKY/WX    TMP DP  RH WIND       PRES   REMARKS
BURLEY         CLOUDY    43  31  62 SW9       29.83F
JEROME         LGT RAIN  39  33  79 E7        29.84S WCI  34
TWIN FALLS     LGT RAIN  46  33  60 S17       29.81F
$$

IDZ019>023-221100-
SOUTHEAST IDAHO


CITY           SKY/WX    TMP DP  RH WIND       PRES   REMARKS
IDAHO FALLS    CLOUDY    36  26  67 S7        29.86R WCI  30
POCATELLO      CLOUDY    41  26  55 SW16G25   29.87S
REXBURG        CLOUDY    36  27  69 SW7       29.83F WCI  30
$$

IDZ006-010-011-018-031-032-221100-
CENTRAL IDAHO MOUNTAINS


CITY           SKY/WX    TMP DP  RH WIND       PRES   REMARKS
MCCALL         LGT SNOW  35  33  92 SE14      29.63F FOG     WCI  26
HAILEY         LGT SNOW  32  32 100 CALM      29.84F VSB 3/4
STANLEY          N/A     34  31  88 SE15G29   29.71F WCI  24
SALMON         CLOUDY    27  23  86 N3        29.65R
CHALLIS        LGT RAIN  37  32  82 SE14      29.68R WCI  28
$$

IDZ002-004-006-007-026-221100-
NORTHERN IDAHO


CITY           SKY/WX    TMP DP  RH WIND       PRES   REMARKS
LEWISTON       LGT RAIN  50  40  68 SW16G23   29.52R
LOWELL           N/A     36  35  96 NW5       29.54S WCI  32
COEUR D`ALENE  CLOUDY    43  39  87 CALM      29.39R
MULLAN PASS    SNOW      32  29  88 SW14G31   29.37R VSB 1/2 WCI  22
$$



USA.gov is the U.S. government's official web portal to all federal, state and local government web resources and services.